Content
SEND FEEDBACK

Daily
Averages
Monthly
Summary
Canada

STRATFORD, ONTARIO


Home > North America > Canada > Ontario
Elevation: 1161 feet     Latitude: 43 24N     Longitude: 081 00W

WEATHER
 
SELECT A DAY
Number of Records: 191,696;   Date Range: 1/1/95 - 9/17/14
 
SHARE

PRINT THIS DATA

[ ← Previous Day ]
WEATHER ALMANAC - JANUARY 14, 2013
[ Next Day → ]
[ °C ]   °F
Weather ElementAverageHighLow
Temperature26 °F33.8 °F (12:16 am)21.2 °F (10:00 pm)
Dewpoint21.2 °F32 °F (12:16 am)15.8 °F (1:00 pm)
Humidity81.3 %93 % (12:16 am)65 % (7:00 pm)
Barometer30.26 in30.44 in (6:00 pm)29.96 in (12:16 am)
Wind Speed11.1 mph20.7 mph (2:36 am)
Wind Gust29.9 mph (2:36 am)
Weather ElementAverage
Visibility13 mi
Wind DirectionWNW (279.4 °)

Weather ElementTotal
Precipitation---
Heating Degree Days37.5 (Base 65)
Averaged from 34 records on January 14, 2013
WEATHER CONDITIONS BREAKOUT
WIND DIRECTION BREAKOUT
WEATHER BY HOUR - JANUARY 14, 2013
[ °C ]   °F
Local TimeTemperatureDewpointHumidityBarometerVisibilityWind DirectionWind SpeedGust SpeedPrecipitationEventsConditions
12:16 AM33.8 °F32.0 °F93 %29.96 in2.5 miWNW (290°)13.8 mph19.6 mphRainLight Rain Showers
12:44 AM33.8 °F32.0 °F93 %29.96 in2.5 miWNW (290°)12.7 mphSnowLight Snow Showers
1:00 AM33.0 °F32.0 °F93 %29.96 in10.0 miWNW (290°)10.4 mphOvercast
1:00 AM33.8 °F32.0 °F93 %29.96 in10.0 miWNW (290°)8.1 mphOvercast
1:46 AM33.8 °F32.0 °F93 %30.00 in12.0 miWest (280°)15.0 mph20.7 mphOvercast
2:00 AM33.8 °F32.0 °F93 %30.01 in15.0 miWNW (290°)11.5 mph21.9 mphOvercast
2:36 AM32.0 °F30.2 °F93 %30.04 in15.0 miWest (280°)20.7 mph29.9 mphOvercast
3:00 AM32.0 °F28.4 °F87 %30.06 in15.0 miWest (270°)16.1 mphMostly Cloudy
4:00 AM28.4 °F24.8 °F86 %30.11 in15.0 miWest (270°)16.1 mph26.5 mphOvercast
5:00 AM28.4 °F23.0 °F80 %30.14 in15.0 miWNW (290°)16.1 mphOvercast
6:00 AM26.6 °F21.2 °F80 %30.19 in15.0 miWest (280°)16.1 mph26.5 mphOvercast
7:00 AM26.0 °F20.0 °F70 %30.23 in15.0 miWNW (300°)17.3 mphOvercast
7:00 AM24.8 °F19.4 °F80 %30.23 in15.0 miWNW (300°)15.0 mph26.5 mphOvercast
8:00 AM24.8 °F19.4 °F80 %30.28 in15.0 miWNW (290°)12.7 mph20.7 mphOvercast
9:00 AM24.8 °F19.4 °F80 %30.31 in15.0 miWest (270°)16.1 mph23.0 mphOvercast
10:00 AM23.0 °F17.6 °F80 %30.35 in15.0 miNW (310°)12.7 mph21.9 mphOvercast
10:25 AM23.0 °F17.6 °F80 %30.35 in15.0 miWNW (290°)11.5 mph19.6 mphSnowLight Snow
11:00 AM23.0 °F17.6 °F80 %30.37 in15.0 miWNW (290°)11.5 mph20.7 mphSnowLight Snow
12:00 PM23.0 °F17.6 °F80 %30.36 in15.0 miWest (270°)11.5 mph17.3 mphSnowLight Snow
1:00 PM23.0 °F17.0 °F68 %30.35 in15.0 miWest (280°)12.7 mphOvercast
1:00 PM23.0 °F15.8 °F74 %30.35 in15.0 miWest (270°)12.7 mphSnowLight Snow
2:00 PM23.0 °F17.6 °F80 %30.35 in15.0 miWNW (300°)8.1 mphSnowLight Snow
3:00 PM23.0 °F17.6 °F80 %30.38 in15.0 miWest (270°)10.4 mphSnowLight Snow Showers
3:51 PM23.0 °F17.6 °F80 %30.38 in4.0 miWNW (300°)6.9 mphSnowLight Snow Showers
4:00 PM23.0 °F17.6 °F80 %30.39 in4.0 miWSW (250°)8.1 mphSnowLight Snow Showers
5:00 PM23.0 °F17.6 °F80 %30.43 in6.0 miWest (270°)6.9 mphSnowLight Snow Showers
6:00 PM23.0 °F17.6 °F80 %30.44 in15.0 miWSW (250°)6.9 mphSnowLight Snow Showers
6:23 PM23.0 °F15.8 °F74 %30.44 in15.0 miWSW (250°)6.9 mphOvercast
7:00 PM23.0 °F16.0 °F65 %30.43 in15.0 miWest (280°)6.9 mphOvercast
7:00 PM23.0 °F15.8 °F74 %30.43 in15.0 miWest (270°)6.9 mphOvercast
8:00 PM23.0 °F17.6 °F80 %30.43 in15.0 miWest (260°)3.5 mphMostly Cloudy
9:00 PM23.0 °F15.8 °F74 %30.41 in15.0 miWest (260°)4.6 mphScattered Clouds
10:00 PM21.2 °F15.8 °F80 %30.40 in15.0 miWest (260°)5.8 mphScattered Clouds
11:00 PM21.2 °F15.8 °F80 %30.39 in15.0 miWNW (290°)3.5 mphClear
Hourly data recorded from CYXU, located miles away from Stratford, Ontario







STORIES FROM OUR PARTNERS